Location: Janesville
(42.6830°N, 89.0190°W)
Time: 01:02:55
(UTC-06:00)

Hubble Space Telescope - Visible Passes

Search period start: 31 January 2015 00:00
Search period end: 10 February 2015 00:00
Orbit: 544 x 548 km, 28.5° (Epoch: 30 January)

Date Brightness Start Highest point End Pass type
(mag) Time Alt. Az. Time Alt. Az. Time Alt. Az.
31 Jan 3.3 18:36:34 10° S 18:37:39 11° S 18:38:45 10° SSE visible
01 Feb 3.3 18:28:09 10° SSW 18:29:29 11° S 18:30:50 10° SSE visible
02 Feb 3.4 18:19:56 10° SSW 18:21:20 11° S 18:22:44 10° SSE visible
03 Feb 3.4 18:11:52 10° SSW 18:13:10 11° S 18:14:28 10° SSE visible
04 Feb 3.5 18:04:00 10° SSW 18:04:59 11° S 18:05:59 10° S visible
